Cross City, FL

4:28 AM EDT on October 17, 2019 (GMT -0400)
Cross City

Weather History for KCTY - July, 2019

Change the Weather History Date:

Saturday, July 27, 2019

  Actual Average Record
Temperature  
Mean Temperature 80 °F 82 °F  
Max Temperature 91 °F 91 °F 98 °F (2016)
Min Temperature 69 °F 72 °F 70 °F (2000)
Degree Days  
Heating Degree Days 0    
Month to date heating degree days 0  
Since 1 June heating degree days 0  
Since 1 July heating degree days 0  
Cooling Degree Days 15    
Month to date cooling degree days 463  
Year to date cooling degree days 1639  
Since 1 June cooling degree days 955  
Growing Degree Days 30 (Base 50)    
Moisture  
Dew Point 72 °F    
Average Humidity 80    
Maximum Humidity 100    
Minimum Humidity 55    
Precipitation  
Precipitation 0.00 in 0.20 in 2.87 in (2015)
Month to date precipitation 7.19 4.85  
Year to date precipitation 35.84 27.11  
Sea Level Pressure  
Sea Level Pressure 30.16 in    
Wind  
Wind Speed 5 mph (NE)    
Max Wind Speed 10 mph    
Max Gust Speed 17 mph    
Visibility 9 miles    
Events      
T = Trace of Precipitation, MM = Missing Value Source: NWS Daily Summary

Daily Weather History Graph

Daily Weather History Graph

Search for Another Location

Airport or City:

Astronomy

Jul. 27, 2019 Rise Set
Actual Time 6:49 AM EDT 8:28 PM EDT
Civil Twilight 6:22 AM EDT 8:54 PM EDT
Nautical Twilight 5:51 AM EDT 9:25 PM EDT
Astronomical Twilight 5:18 AM EDT 9:58 PM EDT
Moon 2:30 AM EDT (7/27) 4:19 PM EDT (7/27)
Length of Visible Light 14h 31m
Length of Day
13h 39m
Waning Crescent, 24% of the Moon is Illuminated
Jul 27
Waning Crescent
Jul 31
New
Aug 7
First Quarter
Aug 15
Full
Aug 23
Last Quarter

Hourly Weather History & Observations

Time (EDT) Temp. Heat Index Dew Point Humidity Pressure Visibility Wind Dir Wind Speed Gust Speed Precip Events Conditions
12:15 AM 72.5 °F - 70.3 °F 93% 30.17 in 10.0 mi ENE 4.6 mph - N/A   Overcast
12:35 AM 72.5 °F - 70.5 °F 93% 30.17 in 10.0 mi NNE 3.5 mph - N/A   Overcast
12:55 AM 72.5 °F - 70.5 °F 93% 30.17 in 10.0 mi Calm Calm - N/A   Overcast
1:15 AM 72.3 °F - 70.7 °F 95% 30.17 in 10.0 mi Calm Calm - N/A   Overcast
1:35 AM 72.0 °F - 70.7 °F 96% 30.17 in 10.0 mi NE 3.5 mph - N/A   Mostly Cloudy
1:55 AM 71.8 °F - 70.7 °F 96% 30.16 in 10.0 mi Calm Calm - N/A   Scattered Clouds
2:15 AM 71.4 °F - 70.5 °F 97% 30.16 in 10.0 mi NNE 3.5 mph - N/A   Clear
2:35 AM 71.1 °F - 70.3 °F 98% 30.15 in 10.0 mi NNE 4.6 mph - N/A   Clear
2:55 AM 71.2 °F - 70.5 °F 98% 30.14 in 10.0 mi NE 3.5 mph - N/A   Clear
3:15 AM 71.6 °F - 69.8 °F 94% 30.14 in 10.0 mi Calm Calm - N/A   Clear
3:35 AM 70.3 °F - 69.8 °F 98% 30.13 in 10.0 mi North 3.5 mph - N/A   Clear
3:55 AM 70.5 °F - 70.0 °F 98% 30.13 in 10.0 mi Calm Calm - N/A   Clear
4:15 AM 70.0 °F - 69.6 °F 99% 30.13 in 7.0 mi Calm Calm - N/A   Clear
4:35 AM 70.0 °F - 69.6 °F 99% 30.13 in 7.0 mi Calm Calm - N/A   Clear
4:55 AM 69.8 °F - 69.6 °F 99% 30.14 in 7.0 mi Calm Calm - N/A   Clear
5:15 AM 69.8 °F - 69.6 °F 99% 30.14 in 5.0 mi NE 4.6 mph - N/A   Clear
5:35 AM 69.8 °F - 69.6 °F 99% 30.14 in 10.0 mi NNE 4.6 mph - N/A   Clear
5:55 AM 69.8 °F - 69.6 °F 99% 30.15 in 10.0 mi Calm Calm - N/A   Clear
6:15 AM 69.8 °F - 69.6 °F 99% 30.15 in 7.0 mi NNE 3.5 mph - N/A   Clear
6:35 AM 70.0 °F - 69.6 °F 99% 30.16 in 7.0 mi North 3.5 mph - N/A   Clear
6:55 AM 70.2 °F - 69.8 °F 99% 30.17 in 7.0 mi NNE 5.8 mph - N/A   Clear
7:15 AM 70.5 °F - 70.2 °F 99% 30.17 in 7.0 mi NNE 3.5 mph - N/A   Clear
7:35 AM 71.1 °F - 70.7 °F 99% 30.18 in 10.0 mi NNE 4.6 mph - N/A   Scattered Clouds
7:55 AM 71.6 °F - 71.6 °F 100% 30.19 in 10.0 mi Calm Calm - N/A   Scattered Clouds
8:15 AM 72.5 °F - 71.8 °F 98% 30.20 in 10.0 mi NNE 4.6 mph - N/A   Scattered Clouds
8:35 AM 73.9 °F - 72.1 °F 94% 30.20 in 10.0 mi NE 6.9 mph - N/A   Scattered Clouds
8:55 AM 75.0 °F - 71.6 °F 89% 30.20 in 10.0 mi NE 5.8 mph - N/A   Scattered Clouds
9:15 AM 77.2 °F - 72.7 °F 86% 30.21 in 10.0 mi ENE 4.6 mph - N/A   Scattered Clouds
9:35 AM 78.4 °F - 73.0 °F 83% 30.21 in 10.0 mi ENE 5.8 mph - N/A   Mostly Cloudy
9:55 AM 78.1 °F - 72.7 °F 83% 30.21 in 10.0 mi NNE 3.5 mph - N/A   Overcast
10:15 AM 78.8 °F - 73.0 °F 82% 30.21 in 10.0 mi NE 5.8 mph - N/A   Overcast
10:35 AM 79.7 °F - 73.2 °F 80% 30.22 in 7.0 mi NNE 6.9 mph - N/A   Haze
10:55 AM 80.6 °F 85.2 °F 73.2 °F 78% 30.22 in 10.0 mi NE 5.8 mph - N/A   Overcast
11:15 AM 82.2 °F 88.0 °F 73.8 °F 75% 30.21 in 4.0 mi East 4.6 mph - N/A   Haze
11:35 AM 84.2 °F 90.9 °F 73.4 °F 70% 30.21 in 7.0 mi East 8.1 mph - N/A   Scattered Clouds
11:55 AM 84.4 °F 91.0 °F 73.2 °F 69% 30.21 in 5.0 mi ENE 5.8 mph - N/A   Haze
12:15 PM 85.5 °F 93.0 °F 73.8 °F 68% 30.21 in 10.0 mi East 5.8 mph - N/A   Scattered Clouds
12:35 PM 86.0 °F 93.0 °F 73.0 °F 65% 30.20 in 10.0 mi ENE 6.9 mph - N/A   Scattered Clouds
12:55 PM 85.6 °F 92.2 °F 72.5 °F 65% 30.19 in 10.0 mi NNW 6.9 mph - N/A   Scattered Clouds
1:15 PM 86.4 °F 93.8 °F 73.4 °F 65% 30.19 in 10.0 mi ENE 5.8 mph - N/A   Scattered Clouds
1:35 PM 86.4 °F 93.4 °F 72.7 °F 64% 30.18 in 10.0 mi North 5.8 mph - N/A   Scattered Clouds
1:55 PM 87.6 °F 94.8 °F 72.7 °F 61% 30.17 in 10.0 mi East 4.6 mph - N/A   Scattered Clouds
2:15 PM 87.6 °F 93.9 °F 71.6 °F 59% 30.17 in 10.0 mi North 3.5 mph - N/A   Scattered Clouds
2:35 PM 88.2 °F 95.5 °F 72.5 °F 60% 30.17 in 10.0 mi NNW 5.8 mph - N/A   Scattered Clouds
2:55 PM 88.0 °F 93.8 °F 71.2 °F 57% 30.16 in 7.0 mi North 4.6 mph - N/A   Haze
3:15 PM 89.6 °F 96.6 °F 71.8 °F 56% 30.15 in 10.0 mi North 6.9 mph - N/A   Scattered Clouds
3:35 PM 88.0 °F 94.2 °F 71.6 °F 58% 30.15 in 10.0 mi Calm Calm - N/A   Mostly Cloudy
3:55 PM 90.5 °F 98.1 °F 72.3 °F 55% 30.14 in 10.0 mi NNE 8.1 mph - N/A   Scattered Clouds
4:15 PM 89.4 °F 96.8 °F 72.5 °F 57% 30.14 in 10.0 mi NNE 6.9 mph - N/A   Scattered Clouds
4:35 PM 89.1 °F 96.5 °F 72.5 °F 58% 30.13 in 10.0 mi NE 9.2 mph - N/A   Scattered Clouds
4:55 PM 87.8 °F 95.6 °F 73.4 °F 62% 30.13 in 10.0 mi NNE 10.4 mph - N/A   Mostly Cloudy
5:15 PM 89.4 °F 95.8 °F 71.2 °F 55% 30.12 in 10.0 mi NE 8.1 mph - N/A   Scattered Clouds
5:35 PM 89.1 °F 96.5 °F 72.7 °F 58% 30.12 in 10.0 mi NE 12.7 mph 17.3 mph N/A   Scattered Clouds
5:55 PM 87.4 °F 95.3 °F 73.2 °F 63% 30.12 in 10.0 mi NE 10.4 mph - N/A   Scattered Clouds
6:15 PM 87.6 °F 94.3 °F 72.3 °F 60% 30.12 in 10.0 mi NNE 10.4 mph - N/A   Clear
6:35 PM 86.0 °F 91.8 °F 71.6 °F 62% 30.12 in 10.0 mi NE 10.4 mph - N/A   Clear
6:55 PM 86.5 °F 92.9 °F 72.0 °F 62% 30.13 in 10.0 mi NE 8.1 mph - N/A   Clear
7:15 PM 85.3 °F 91.1 °F 72.0 °F 64% 30.13 in 10.0 mi NE 8.1 mph - N/A   Clear
7:35 PM 84.2 °F 89.6 °F 71.6 °F 66% 30.13 in 10.0 mi NE 11.5 mph - N/A   Clear
7:55 PM 82.0 °F 86.3 °F 70.9 °F 69% 30.14 in 10.0 mi NE 9.2 mph - N/A   Clear
8:15 PM 81.1 °F 84.9 °F 70.7 °F 70% 30.15 in 10.0 mi NE 6.9 mph - N/A   Clear
8:35 PM 80.1 °F 83.4 °F 70.9 °F 73% 30.15 in 10.0 mi NE 6.9 mph - N/A   Clear
8:55 PM 79.3 °F - 70.7 °F 75% 30.15 in 10.0 mi NE 6.9 mph - N/A   Clear
9:15 PM 78.6 °F - 70.9 °F 77% 30.15 in 10.0 mi NE 5.8 mph - N/A   Clear
9:35 PM 77.9 °F - 71.1 °F 79% 30.16 in 10.0 mi NE 4.6 mph - N/A   Clear
9:55 PM 77.7 °F - 71.4 °F 81% 30.17 in 10.0 mi NE 5.8 mph - N/A   Clear
10:15 PM 77.7 °F - 71.8 °F 82% 30.17 in 10.0 mi ENE 4.6 mph - N/A   Clear
10:35 PM 77.5 °F - 72.0 °F 83% 30.18 in 10.0 mi NE 5.8 mph - N/A   Clear
10:55 PM 77.2 °F - 72.1 °F 84% 30.18 in 10.0 mi NE 5.8 mph - N/A   Clear
11:15 PM 77.0 °F - 72.3 °F 85% 30.17 in 10.0 mi NE 4.6 mph - N/A   Clear